Location: Jackson Park
(37.2862°N, 79.9123°W)
Time: 02:29:33
(UTC+00:00)

Explorer 11/Cluster Stage 4 - Visible Passes

Search period start: 14 May 2026 00:00
Search period end: 24 May 2026 00:00
Orbit: 463 x 1174 km, 28.8° (Epoch: 13 May)

Date Brightness Start Highest point End Pass type
(mag) Time Alt. Az. Time Alt. Az. Time Alt. Az.
15 May 8.8 01:10:51 10° SSE 01:12:34 11° SSE 01:13:53 10° SE visible
15 May 9.1 02:54:17 10° SW 02:55:10 13° SSW 02:55:10 13° SSW visible
16 May 8.4 02:29:07 10° SW 02:33:03 23° S 02:33:03 23° S visible
17 May 8.0 02:03:58 10° SW 02:10:07 27° SSE 02:10:46 27° SSE visible
17 May 9.1 03:51:06 10° WSW 03:52:02 14° WSW 03:52:02 14° WSW visible
18 May 8.1 01:38:51 10° SW 01:45:11 28° SSE 01:48:16 21° SE visible
18 May 8.4 03:25:59 10° WSW 03:29:30 26° SW 03:29:30 26° SW visible
19 May 8.2 01:13:45 10° SW 01:20:13 29° SSE 01:25:33 13° ESE visible
19 May 7.7 03:00:52 10° WSW 03:06:46 39° SSW 03:06:46 39° SSW visible
20 May 8.2 00:48:43 10° SW 00:55:14 30° SSE 01:01:31 10° ESE visible
20 May 7.5 02:35:46 10° WSW 02:42:53 42° S 02:43:50 40° SSE visible
20 May 9.1 04:23:53 10° WSW 04:25:03 14° WSW 04:25:03 14° WSW visible
21 May 7.7 02:10:42 10° WSW 02:17:55 43° S 02:20:43 31° SE visible
21 May 8.6 03:58:47 10° WSW 04:01:56 24° WSW 04:01:56 24° WSW visible
22 May 7.7 01:45:39 10° WSW 01:52:55 43° S 01:57:29 21° ESE visible
22 May 8.1 03:33:41 10° WSW 03:38:40 33° SW 03:38:40 33° SW visible
23 May 7.8 01:20:40 10° WSW 01:27:55 44° S 01:34:07 14° ESE visible
23 May 7.8 03:08:36 10° WSW 03:15:18 39° SSW 03:15:18 39° SSW visible
